Location: Brantley
(31.5822°N, 86.2569°W)
Time: 13:13:52
(UTC+00:00)

Vanguard 3 - Pass Details

Date: 17 February 2026
Orbit: 507 x 3205 km, 33.4° (Epoch: 17 March)

Event Time Altitude Azimuth Distance (km) Brightness Sun altitude
Rises 23:19:18 0° 263° (W) 5,046 13.7 2.1°
Reaches altitude 10° 23:23:22 10° 265° (W) 3,599 12.6 1.3°
Maximum altitude 23:31:47 79° 352° (N) 950 7.6 -0.4°
Drops below altitude 10° 23:36:40 10° 80° (E) 2,144 8.7 -1.4°
Enters shadow 23:38:09 - 81° (E) 2,728 9.1 -1.8°
Sets 23:38:34 0° 81° (E) 2,895 - -1.8°
